This demonstration page uses our WeatherBlox Daily Observations layout. Learn more.

36.17497, -115.13722

Hourly Observations for June 1, 2016

Temp ( °F °C ) Dew Point ( °F °C ) Humidity (%) Winds ( mph kmh ) Pressure ( in mb ) Visibility ( mi km ) Precip ( " mm )
12:53 am 00:53 Clear 86 30 28 -2.2 12 12 ENE 7 11 29.76 1008 10 16.0934 0 0
1:53 am 01:53 Clear 83 28.3 30 -1.1 15 15 Calm 29.77 1008 10 16.0934 0 0
2:53 am 02:53 Clear 80 26.7 32 0 17 17 WNW 8 13 29.79 1009 10 16.0934 0 0
3:53 am 03:53 Clear 80 26.7 31 -0.6 17 17 WNW 6 9 29.8 1009 10 16.0934 0 0
4:53 am 04:53 Clear 76 24.4 32 0 20 20 NNW 5 7 29.82 1010 10 16.0934 0 0
5:53 am 05:53 Sunny 74 23.3 30 -1.1 20 20 Calm 29.85 1011 10 16.0934 0 0
6:53 am 06:53 Sunny 78 25.6 32 0 19 19 NW 3 6 29.87 1012 10 16.0934 0 0
7:53 am 07:53 Sunny 81 27.2 36 2.2 20 20 Calm 29.89 1012 10 16.0934 0 0
8:53 am 08:53 Sunny 86 30 30 -1.1 13 13 Calm 29.89 1012 10 16.0934 0 0
9:53 am 09:53 Sunny 89 31.7 28 -2.2 11 11 E 6 9 29.89 1012 10 16.0934 0 0
10:53 am 10:53 Sunny 90 32.2 27 -2.8 10 10 ESE 7 11 29.89 1012 10 16.0934 0 0
11:53 am 11:53 Sunny 92 33.3 27 -2.8 10 10 VRB 5 7 29.87 1011 10 16.0934 0 0
12:53 pm 12:53 Sunny 94 34.4 27 -2.8 9 9 VRB 3 6 29.84 1010 10 16.0934 0 0
1:53 pm 13:53 Sunny 97 36.1 27 -2.8 8 8 WNW 5 7 29.81 1010 10 16.0934 0 0
2:53 pm 14:53 Sunny 99 37.2 27 -2.8 8 8 VRB 7 11 29.78 1008 10 16.0934 0 0
3:53 pm 15:53 Sunny 100 37.8 25 -3.9 7 7 VRB 3 6 29.75 1008 10 16.0934 0 0
4:53 pm 16:53 Sunny 99 37.2 23 -5 6 6 Calm 29.75 1007 10 16.0934 0 0
5:53 pm 17:53 Sunny 100 37.8 22 -5.6 6 6 W 3 6 29.74 1007 10 16.0934 0 0
6:53 pm 18:53 Sunny 101 38.3 19 -7.2 5 5 VRB 6 9 29.74 1007 10 16.0934 0 0
7:53 pm 19:53 Sunny 97 36.1 23 -5 7 7 E 5 7 29.75 1008 10 16.0934 0 0
8:53 pm 20:53 Clear 93 33.9 26 -3.3 9 9 SSE 8 13 29.76 1008 10 16.0934 0 0
9:53 pm 21:53 Clear 90 32.2 29 -1.7 11 11 WNW 7 11 29.79 1009 10 16.0934 0 0
10:53 pm 22:53 Clear 86 30 30 -1.1 13 13 NW 6 9 29.8 1009 10 16.0934 0 0
11:53 pm 23:53 Clear 84 28.9 32 0 15 15 WNW 3 6 29.8 1009 10 16.0934 0 0

Powered by AerisWeather